Home   Weather   Campbell River   Past weeks

Flag for Canada Past Weather in Campbell River, British Columbia, Canada — Yesterday and Last 2 Weeks

Now
45 °F

Light rain. Cloudy.


Feels Like: 36 °F
Forecast: 43 / 46 °F
Wind: 21 mph from Southeast

Location: Campbell River Airport

Current Time: Jan 17, 2017 at 3:33:20 pm

Latest Report: Jan 17, 2017 at 2:00 pm


Visibility: 4 mi

Pressure: 29.39 "Hg

Humidity: 87%

Dew Point: 41 °F

Location of Campbell RiverLocation

Past Weather in Campbell River — Graph

°F

Campbell River Temperature Yesterday

Maximum temperature yesterday: 39 °F (at 7:00 pm)
Minimum temperature yesterday: 32 °F (at 7:00 am)
Average temperature yesterday: 37 °F

High & Low Weather Summary for the Past Weeks

 TemperatureHumidityPressure
High45 °F (Jan 17, 12:23 pm)100% (Jan 8, 7:00 am)30.48 "Hg (Jan 8, 7:00 am)
Low10 °F (Jan 3, 6:00 am)25% (Jan 2, 3:00 pm)29.39 "Hg (Jan 17, 2:00 pm)
Average30 °F86%30.00 "Hg
* Reported Jan 2 2:00 pm — Jan 17 2:00 pm, Campbell River, Weather by CustomWeather, © 2017

Note: Actual official high and low records may vary slightly from our data, if they occured in-between our weather recording intervals... More about our weather records

Advertising

Campbell River Weather History for the Previous 24 Hours

Scroll right to see more
 ConditionsComfort  
Time TempWeatherWind HumidityBarometerVisibility
2:00 pm
Tue, Jan 17
45 °FLight rain. Cloudy.21 mph87%29.39 "Hg4 mi
1:36 pm45 °FLight rain. Low clouds.18 mph87%29.41 "Hg8 mi
1:00 pm45 °FPartly sunny.14 mph93%29.44 "Hg10 mi
12:51 pm45 °FBroken clouds.16 mph87%29.44 "Hg8 mi
12:23 pm45 °FCloudy.15 mph93%29.46 "Hg7 mi
12:00 pm43 °FLight rain. Fog.7 mph100%29.48 "Hg5 mi
11:00 am41 °FLight rain. Fog.16 mph100%29.50 "Hg5 mi
10:11 am41 °FLight rain. Fog.15 mph93%29.52 "Hg5 mi
10:00 am41 °FLight rain. Fog.20 mph93%29.52 "Hg6 mi
9:00 am41 °FLight rain. Fog.16 mph93%29.53 "Hg6 mi
8:23 am41 °FLight rain. Fog.21 mph93%29.53 "Hg6 mi
8:00 am41 °FRain. Fog.17 mph93%29.54 "Hg4 mi
7:50 am41 °FRain. Fog.17 mph93%29.54 "Hg3 mi
7:00 am41 °FRain. Overcast.18 mph93%29.56 "Hg8 mi
6:34 am41 °FRain. Overcast.18 mph93%29.57 "Hg8 mi
6:00 am41 °FLight rain. Overcast.18 mph93%29.58 "Hg8 mi
9:00 pm
Mon, Jan 16
39 °FLight rain. Mostly cloudy.14 mph93%29.80 "Hg7 mi
8:00 pm37 °FLight rain. Mostly cloudy.20 mph93%29.81 "Hg7 mi
7:00 pm39 °FLight rain. Overcast.15 mph87%29.84 "Hg8 mi
6:00 pm37 °FLight rain. Overcast.15 mph93%29.85 "Hg8 mi
5:00 pm37 °FLight rain. Mostly cloudy.13 mph93%29.90 "Hg8 mi
4:00 pm37 °FLight rain. Mostly cloudy.13 mph87%29.91 "Hg8 mi
3:00 pm37 °FLight rain. Cloudy.12 mph87%29.93 "Hg8 mi
Weather by CustomWeather, © 2017

See weather overviewHow to use our weather pages